Regional Weather Roundup
Issued by NWS Little Rock, AR

Home | Current Version | Previous Version | Text Only | Print | Product List | Glossary Off
Versions: 1 2 3 4 5 6 7 8 9 10 11 12 13 14 15 16 17 18 19 20 21 22 23 24 25 26 27 28 29 30 31 32 33 34 35 36 37 38 39 40 41 42 43 44 45 46 47 48 49 50

000
ASUS44 KLZK 280305
RWRLZK

WEATHER ROUNDUP FOR ARKANSAS
NATIONAL WEATHER SERVICE LITTLE ROCK AR
1000 PM CDT TUE JUN 27 2017

NOTE: "FAIR" INDICATES FEW OR NO CLOUDS BELOW 12,000 FEET WITH NO
SIGNIFICANT WEATHER AND/OR OBSTRUCTIONS TO VISIBILITY.

ARZ001-003-010-029-280400-
NORTHWEST ARKANSAS

CITY           SKY/WX    TMP DP  RH WIND       PRES   REMARKS
FAYETTEVILLE   CLEAR     73  63  70 SE7       30.01R
FORT SMITH     CLEAR     77  67  71 E6        29.98R
HARRISON       CLEAR     70  63  78 S7        30.04R
BENTONVILLE    CLEAR     73  63  68 S7        30.02R
ROGERS         CLEAR     74  63  68 SE7       30.02R
SILOAM SPGS    CLEAR     73  63  68 SE7       30.00R
HIGHFILL       CLEAR     74  64  71 SE8       30.01R
$$

ARZ004-005-016-280400-
NORTH CENTRAL ARKANSAS

CITY           SKY/WX    TMP DP  RH WIND       PRES   REMARKS
BATESVILLE     CLEAR     73  64  73 SE3       30.05R
FLIPPIN        CLEAR     73  61  64 SE3       30.01R
MTN HOME       CLEAR     71  63  75 S5        30.03R
$$

ARZ040-041-280400-
WEST CENTRAL ARKANSAS

CITY           SKY/WX    TMP DP  RH WIND       PRES   REMARKS
MENA           CLEAR     72  70  94 CALM      30.03R
MOUNT IDA      CLEAR     71  65  81 CALM      30.00S
$$

ARZ009-017-025-026-028-280400-
NORTHEAST ARKANSAS

CITY           SKY/WX    TMP DP  RH WIND       PRES   REMARKS
CORNING        FAIR      72  72 100 E5        30.05R
JONESBORO      CLEAR     71  68  90 E3        30.04R
WALNUT RIDGE   CLEAR     72  64  78 E6        30.04R
BLYTHEVILLE    CLEAR     73  67  81 E5        30.05R
$$

ARZ022-023-033-042-044-280400-
CENTRAL ARKANSAS

CITY           SKY/WX    TMP DP  RH WIND       PRES   REMARKS
LITTLE ROCK    PTCLDY    73  67  81 SE5       30.03R
N LITTLE ROCK    N/A     75  65  70 CALM      30.03
JACKSONVILLE   PTCLDY    72  69  90 CALM      30.02R
CONWAY           N/A     73  68  83 CALM      30.01R
SEARCY         PTCLDY    71  68  90 CALM      30.05R
HOT SPRINGS    PTCLDY    74  66  76 E5        30.02R
RUSSELLVILLE   CLEAR     72  66  81 CALM      30.01R
CLINTON        FAIR      68  66  94 CALM      30.04R
$$

ARZ036-280400-
EAST ARKANSAS

CITY           SKY/WX    TMP DP  RH WIND       PRES   REMARKS
WEST MEMPHIS   PTCLDY    74  67  78 NE5       30.03R
$$

ARZ050-053-066-070-073-280400-
SOUTHWEST ARKANSAS

CITY           SKY/WX    TMP DP  RH WIND       PRES   REMARKS
ARKADELPHIA    FAIR      73  69  87 CALM      30.01R
CAMDEN         PTCLDY    73  64  73 CALM      30.01R
TEXARKANA      CLEAR     76  67  73 SE5       29.99R
EL DORADO      CLOUDY    72  68  87 CALM      30.01R
DE QUEEN       PTCLDY    74  69  85 E3        29.97R
$$

ARZ056-057-069-280400-
SOUTHEAST ARKANSAS

CITY           SKY/WX    TMP DP  RH WIND       PRES   REMARKS
PINE BLUFF     CLEAR     73  70  90 CALM      30.03R
STUTTGART      PTCLDY    77  57  50 E5        30.04R
MONTICELLO     PTCLDY    71  67  87 CALM      30.03R

$$





USA.gov is the U.S. government's official web portal to all federal, state and local government web resources and services.